Wind_Speed
22 15 16 21 20 21 18 20 21 18 16 15 11 12 12 17 16 16 22 27 27 27 27 26 26 25 26 28 24 26 24 23 23 20 17 14 13 12 7 5 12 16 13 7
19 20 21 21 21 20 18 19 17 19 15 16 16 19 11 18 16 11 16 23 31 26 27 32 30 29 28 30 29 25 24 22 21 19 14 16 15 11 8 7 14 12 8 8
22 21 22 23 17 18 18 15 17 16 17 16 16 19 11 17 20 22 15 10 25 27 27 34 37 34 31 31 30 29 22 20 19 14 12 16 13 10 12 11 10 7 6 6
22 24 23 21 21 16 20 15 19 18 15 12 14 14 15 17 14 15 9 9 9 26 23 33 39 38 35 31 31 28 20 22 15 13 9 8 5 8 7 8 7 8 8 7
24 22 20 20 19 18 17 15 18 16 15 16 16 10 14 5 16 9 10 15 3 4 22 30 39 39 33 29 31 26 23 23 12 7 7 9 6 7 8 7 8 11 11 9
26 29 21 19 17 20 13 16 18 13 15 13 16 15 14 15 7 10 11 8 9 8 6 22 38 37 31 32 33 25 27 22 12 9 8 16 16 11 10 10 8 12 12 12
26 27 23 22 14 14 16 17 12 13 12 13 19 17 12 9 14 13 12 12 7 4 4 12 33 34 31 33 27 27 31 21 10 10 5 5 9 14 13 11 12 12 11 12
21 22 25 24 18 14 19 18 13 14 14 15 15 13 12 19 13 22 9 6 6 4 4 11 30 28 29 25 25 24 28 16 9 3 3 4 5 7 3 4 7 8 6 11
20 26 22 26 22 18 19 16 16 18 19 14 13 6 7 9 6 7 9 17 12 13 7 14 26 25 23 18 16 21 19 5 4 0 5 6 6 6 5 6 5 4 11 10
23 23 26 23 24 24 21 15 14 12 16 16 15 13 6 15 10 17 15 17 14 12 12 19 16 17 17 17 16 21 11 8 8 6 6 6 7 7 8 5 5 4 8 9
25 19 22 22 19 20 15 17 17 18 12 12 13 3 9 11 10 13 14 17 17 16 15 15 15 16 17 17 19 22 15 10 14 17 12 9 7 8 7 6 9 8 6 8
26 18 15 25 15 24 17 17 20 12 13 13 13 7 10 3 5 18 17 18 19 18 16 17 18 16 17 17 20 21 18 18 18 14 12 11 13 10 11 10 8 8 8 9
10 13 12 18 18 13 17 21 17 17 13 18 13 3 8 7 7 12 18 17 19 20 18 14 15 15 17 17 18 20 19 22 18 12 13 13 12 14 12 8 7 9 9 9
9 9 9 13 17 13 13 21 20 16 9 14 16 13 6 4 9 1 16 17 18 18 18 15 13 13 13 12 15 20 20 21 22 15 14 14 14 14 14 11 9 8 8 11
5 9 13 16 21 20 17 14 20 18 19 16 7 9 17 15 16 10 10 14 15 16 15 14 12 12 11 12 13 15 17 20 19 17 16 15 15 14 13 14 12 11 9 10
18 10 11 17 16 18 16 17 18 20 22 20 16 14 21 19 16 12 1 10 14 14 14 13 11 12 14 15 15 15 17 20 20 19 18 17 19 18 17 15 15 13 14 14
9 11 8 15 18 18 14 18 22 11 8 11 16 15 13 14 10 18 5 6 9 8 9 12 12 11 15 17 17 19 20 21 23 21 21 23 22 21 20 16 17 15 16 15
5 10 10 10 11 15 10 23 19 4 19 11 26 23 17 4 15 14 8 8 10 9 6 6 5 6 10 15 18 19 21 20 21 22 24 26 25 25 22 20 18 16 16 16
13 10 9 9 11 7 12 11 15 31 17 17 10 31 37 31 25 13 10 12 10 7 7 8 10 7 6 10 16 22 22 24 24 26 30 28 24 25 24 23 22 19 17 17
13 7 8 10 12 6 5 6 23 27 8 15 18 15 10 24 12 8 9 9 7 10 10 12 9 7 10 13 13 19 23 26 31 29 30 27 26 24 26 24 23 21 18 17
10 11 14 12 10 5 6 8 17 11 5 15 16 18 18 13 13 10 8 8 8 10 11 10 14 11 13 13 12 22 23 23 28 32 34 28 26 23 25 24 23 21 20 17
2 3 10 13 13 10 10 12 5 7 9 17 13 17 16 15 11 10 12 13 12 12 12 12 10 13 15 16 17 16 22 31 50 62 35 32 28 24 24 26 23 22 22 21
6 5 5 7 6 13 19 18 15 17 17 10 12 11 13 12 10 12 13 13 13 15 15 13 12 11 11 16 15 13 13 15 25 32 35 31 22 20 21 26 26 25 25 24
11 12 3 3 9 13 17 18 17 16 12 10 11 12 11 11 11 11 12 13 14 15 16 16 13 10 12 12 11 11 10 11 12 10 9 12 13 15 20 25 25 27 27 27
3 8 7 2 8 20 14 17 17 16 14 12 12 13 12 9 10 10 11 13 13 13 16 14 13 11 15 14 12 12 11 14 14 8 8 11 11 17 23 21 21 22 27 28
4 4 3 1 27 21 14 15 16 15 13 12 12 12 10 9 8 10 9 11 12 14 13 14 11 10 11 15 16 15 15 13 13 12 9 13 16 20 19 21 22 27 29 22
Wind_Direction
236 237 241 242 244 240 260 274 288 296 306 320 312 288 286 281 272 274 176 182 185 195 199 198 193 194 193 194 197 197 205 212 225 228 246 234 255 227 225 195 231 267 293 311
240 239 242 254 258 265 259 265 269 274 288 290 287 282 284 277 284 290 267 184 184 190 193 189 190 191 197 197 199 206 213 220 222 231 242 247 240 231 188 199 247 266 275 300
240 243 240 243 248 260 260 267 281 279 280 283 288 277 264 262 268 246 244 236 189 182 187 183 182 188 196 197 197 205 218 219 227 236 252 253 262 230 228 237 255 290 263 270
241 246 248 259 241 237 253 249 253 260 268 268 270 275 260 252 258 240 248 124 269 173 182 179 179 188 192 194 194 208 221 218 226 236 261 237 228 241 234 228 249 255 273 250
249 247 250 251 242 253 264 266 271 284 278 273 267 262 273 186 243 206 128 125 88 127 173 174 178 187 186 191 188 205 215 214 228 252 233 235 267 231 266 242 239 220 247 231
246 247 257 261 247 253 243 267 269 262 265 264 260 257 266 265 120 354 54 84 126 158 227 176 178 181 179 190 194 199 208 210 231 218 235 214 221 225 240 235 230 233 250 231
240 250 253 255 264 237 240 239 245 246 244 249 246 241 241 264 153 212 164 122 136 101 243 162 166 166 171 190 191 205 207 214 245 227 243 253 240 231 236 239 239 244 246 223
233 240 238 249 227 246 250 232 237 239 244 247 232 243 235 233 172 158 236 162 110 146 128 158 153 155 170 185 205 191 201 219 254 229 274 199 179 184 196 208 235 243 221 223
242 250 251 230 225 214 244 255 244 258 274 278 280 261 350 346 153 197 146 107 107 105 137 140 135 150 162 177 207 188 204 169 152 244 284 205 206 178 199 223 256 263 194 226
233 251 253 236 218 221 222 244 236 234 247 271 282 283 347 187 199 109 99 106 110 126 147 134 143 158 175 186 191 184 212 216 195 182 288 249 170 176 214 227 210 216 205 206
244 232 246 255 238 223 204 222 249 264 244 242 245 61 92 61 74 101 118 127 138 139 155 158 165 169 174 180 185 187 204 186 153 138 237 198 169 170 198 192 160 161 167 183
230 225 228 252 236 219 222 224 216 244 257 268 283 327 34 161 146 127 130 147 146 150 158 165 157 162 172 177 184 190 200 183 193 214 208 193 178 181 170 191 164 158 145 132
333 239 222 242 247 235 208 240 235 218 233 264 281 143 172 113 73 120 144 152 149 152 155 163 150 166 170 179 190 191 207 194 206 228 197 179 183 172 185 203 174 165 152 155
307 288 286 244 237 213 225 222 233 244 240 232 245 244 45 68 126 82 151 152 151 149 156 161 169 173 175 182 188 200 211 203 216 206 189 197 180 186 184 188 197 181 165 160
326 298 291 283 254 270 280 233 261 243 253 250 122 109 94 72 343 348 151 160 153 151 163 165 178 188 190 183 194 197 200 196 213 196 191 200 184 197 191 199 187 187 177 178
331 251 264 278 273 259 260 253 248 256 241 244 222 135 146 153 126 83 125 159 155 160 174 173 193 199 202 199 198 196 194 198 200 195 193 203 190 200 201 199 191 189 190 193
3 316 256 251 250 264 260 242 261 253 319 264 221 106 69 80 61 60 21 76 118 154 176 181 191 208 211 218 216 210 207 210 203 201 194 212 201 201 201 198 195 197 195 211
104 293 284 281 282 257 340 357 321 269 102 122 108 108 96 29 69 66 39 69 60 40 29 28 80 242 227 227 231 232 224 224 220 204 204 215 209 200 199 201 199 201 198 214
195 263 287 281 272 326 313 11 357 333 69 43 74 133 153 152 131 119 88 56 70 39 12 355 346 331 306 244 242 246 235 223 217 219 220 223 218 208 202 204 201 204 204 209
199 220 255 263 277 215 240 332 322 332 72 23 67 67 66 161 114 83 72 64 51 54 40 25 24 329 301 265 249 243 233 235 227 222 232 222 224 216 208 211 205 204 207 214
268 229 238 240 251 122 179 210 47 328 13 60 45 61 60 64 68 77 59 51 42 38 27 35 38 23 350 321 290 240 239 248 284 267 220 212 221 219 212 214 211 206 209 211
13 21 277 250 252 223 130 101 174 158 62 55 65 67 76 68 56 53 44 35 29 27 27 25 14 354 341 341 334 294 294 293 291 322 210 204 213 214 217 218 216 213 212 213
337 138 291 328 60 81 70 103 82 84 76 64 73 67 63 67 52 47 35 24 20 21 21 18 11 355 333 335 353 349 335 290 283 315 315 212 201 216 217 219 221 218 217 216
17 28 267 355 97 105 103 101 91 93 92 83 69 66 67 47 47 44 35 28 22 21 21 19 17 346 333 350 350 329 325 291 301 316 290 249 215 215 220 222 225 225 225 226
88 328 329 355 199 105 99 104 106 95 75 61 59 52 41 43 18 29 30 29 21 17 11 16 13 0 332 316 350 357 349 327 323 279 269 278 251 237 231 231 235 237 236 232
348 281 40 314 245 95 111 105 98 85 72 64 62 52 40 31 14 25 28 23 19 15 11 19 18 18 329 329 330 326 338 324 317 315 287 249 248 250 242 232 240 245 247 244
Height
1483 1486 1487 1479 1471 1468 1467 1466 1463 1449 1442 1446 1448 1449 1447 1445 1442 1441 1445 1449 1460 1467 1474 1481 1488 1493 1496 1497 1500 1503 1506 1508 1509 1514 1515 1518 1517 1517 1518 1517 1520 1519 1518 1516
1480 1480 1471 1467 1463 1461 1460 1464 1464 1453 1448 1450 1451 1451 1441 1441 1438 1439 1439 1442 1447 1457 1465 1473 1481 1487 1490 1493 1497 1500 1504 1504 1507 1508 1509 1511 1513 1513 1515 1515 1516 1517 1516 1515
1474 1467 1461 1461 1461 1465 1460 1466 1463 1462 1450 1445 1449 1453 1445 1438 1436 1435 1434 1437 1441 1447 1456 1465 1473 1479 1485 1489 1493 1497 1501 1504 1505 1507 1508 1509 1508 1509 1511 1513 1512 1513 1514 1514
1463 1456 1455 1454 1456 1455 1466 1454 1454 1456 1460 1473 1445 1474 1443 1432 1431 1427 1429 1433 1439 1443 1451 1458 1466 1471 1478 1486 1490 1495 1501 1503 1504 1505 1506 1505 1507 1509 1509 1509 1510 1509 1512 1513
1457 1451 1451 1453 1452 1450 1458 1451 1452 1451 1456 1457 1455 1464 1446 1432 1436 1426 1428 1432 1442 1446 1447 1453 1459 1465 1476 1484 1487 1496 1500 1500 1502 1503 1503 1504 1505 1506 1508 1510 1509 1510 1511 1512
1446 1444 1442 1441 1442 1443 1446 1452 1453 1453 1455 1475 1456 1457 1450 1433 1436 1436 1433 1436 1443 1445 1446 1449 1454 1463 1475 1479 1482 1492 1495 1497 1500 1501 1501 1501 1501 1503 1504 1508 1509 1508 1509 1511
1445 1442 1437 1437 1441 1439 1445 1457 1481 1485 1478 1476 1438 1446 1439 1420 1423 1427 1432 1434 1440 1444 1446 1449 1454 1463 1471 1473 1484 1489 1492 1495 1497 1499 1498 1497 1499 1500 1501 1505 1505 1505 1506 1508
1453 1460 1438 1433 1437 1448 1444 1448 1468 1491 1478 1457 1427 1448 1428 1409 1414 1427 1428 1430 1438 1442 1447 1451 1457 1465 1469 1473 1480 1485 1489 1493 1495 1497 1496 1496 1498 1498 1499 1502 1501 1502 1503 1505
1444 1443 1423 1424 1426 1434 1445 1449 1436 1453 1444 1454 1437 1421 1412 1411 1413 1417 1422 1431 1437 1442 1450 1454 1459 1464 1471 1475 1479 1484 1487 1492 1496 1497 1496 1496 1496 1497 1498 1499 1500 1499 1501 1502
1427 1444 1420 1415 1417 1422 1430 1431 1452 1445 1477 1477 1447 1435 1439 1418 1415 1420 1427 1434 1440 1446 1452 1456 1462 1467 1472 1476 1479 1484 1487 1490 1493 1495 1494 1496 1496 1497 1498 1498 1498 1498 1500 1501
1413 1425 1426 1413 1416 1422 1427 1435 1434 1431 1437 1458 1461 1449 1415 1425 1425 1427 1432 1437 1441 1447 1454 1458 1463 1468 1472 1476 1478 1482 1485 1487 1489 1491 1492 1495 1495 1497 1498 1497 1496 1497 1499 1502
1405 1413 1429 1420 1405 1407 1411 1421 1427 1444 1453 1437 1439 1443 1421 1424 1424 1422 1433 1439 1442 1447 1453 1459 1463 1467 1471 1475 1478 1481 1483 1485 1487 1489 1490 1493 1493 1496 1498 1499 1496 1497 1498 1501
1410 1410 1430 1427 1416 1406 1415 1414 1414 1420 1428 1442 1449 1456 1427 1427 1428 1429 1435 1441 1442 1446 1454 1460 1463 1468 1471 1474 1477 1479 1480 1483 1485 1488 1490 1491 1492 1495 1497 1498 1496 1498 1498 1501
1413 1412 1420 1430 1422 1416 1419 1413 1410 1415 1434 1433 1431 1426 1435 1434 1435 1436 1439 1442 1444 1447 1454 1460 1465 1468 1471 1474 1476 1477 1477 1480 1482 1485 1488 1489 1490 1493 1496 1497 1498 1498 1499 1500
1415 1426 1418 1411 1406 1406 1410 1419 1413 1418 1417 1429 1430 1440 1455 1461 1449 1446 1444 1449 1449 1449 1456 1460 1465 1468 1470 1472 1474 1475 1476 1478 1479 1482 1486 1487 1490 1493 1495 1496 1497 1498 1500 1501
1427 1428 1421 1421 1407 1406 1413 1411 1414 1417 1408 1409 1413 1427 1442 1449 1445 1448 1452 1451 1449 1451 1457 1460 1464 1466 1468 1469 1471 1472 1473 1475 1476 1478 1480 1483 1487 1487 1490 1493 1495 1497 1500 1501
1450 1438 1429 1432 1413 1412 1423 1412 1405 1405 1400 1398 1409 1431 1436 1445 1452 1450 1460 1454 1450 1453 1456 1458 1461 1463 1466 1467 1468 1470 1470 1471 1472 1474 1476 1478 1480 1484 1486 1489 1492 1494 1497 1499
1455 1474 1433 1432 1420 1443 1415 1411 1400 1399 1408 1410 1437 1448 1449 1455 1458 1461 1465 1462 1456 1457 1457 1457 1460 1464 1465 1466 1468 1470 1472 1471 1471 1472 1474 1475 1476 1477 1480 1484 1486 1489 1493 1495
1429 1433 1434 1436 1432 1440 1424 1432 1448 1463 1415 1422 1421 1423 1444 1454 1465 1472 1465 1463 1462 1462 1461 1458 1461 1463 1463 1466 1467 1465 1466 1469 1469 1468 1468 1471 1472 1474 1475 1476 1480 1483 1487 1491
1420 1425 1437 1433 1439 1459 1452 1439 1456 1449 1426 1425 1432 1436 1444 1435 1455 1466 1467 1465 1465 1463 1462 1462 1462 1463 1463 1462 1463 1466 1465 1467 1466 1467 1468 1470 1469 1471 1472 1473 1474 1479 1483 1486
1428 1427 1432 1431 1436 1437 1448 1444 1451 1475 1460 1438 1443 1438 1446 1455 1462 1465 1467 1466 1463 1461 1462 1462 1463 1462 1462 1462 1461 1461 1459 1456 1446 1461 1454 1459 1464 1467 1470 1471 1472 1474 1479 1482
1453 1471 1438 1423 1430 1441 1449 1450 1460 1453 1447 1445 1453 1450 1454 1458 1464 1464 1463 1461 1461 1462 1462 1463 1464 1462 1460 1461 1459 1458 1458 1452 1448 1425 1440 1441 1455 1458 1465 1469 1468 1469 1474 1477
1474 1476 1472 1453 1452 1449 1448 1450 1450 1452 1453 1462 1461 1462 1460 1462 1466 1465 1464 1463 1463 1462 1462 1463 1463 1462 1461 1459 1459 1458 1456 1443 1433 1427 1420 1426 1446 1454 1456 1463 1465 1465 1468 1470
1454 1466 1456 1465 1452 1458 1458 1458 1459 1461 1465 1467 1466 1464 1466 1466 1468 1467 1467 1465 1463 1463 1463 1462 1462 1459 1458 1460 1460 1460 1459 1455 1445 1439 1436 1426 1446 1446 1453 1458 1460 1460 1463 1465
1463 1464 1462 1463 1463 1454 1463 1458 1460 1464 1465 1465 1465 1465 1467 1468 1470 1468 1467 1466 1465 1463 1462 1462 1462 1460 1456 1456 1458 1459 1458 1456 1452 1449 1447 1442 1441 1448 1453 1455 1454 1457 1460 1459
1475 1468 1473 1474 1461 1445 1464 1462 1458 1461 1464 1465 1465 1468 1471 1472 1472 1469 1468 1468 1466 1465 1464 1462 1461 1460 1456 1454 1454 1455 1457 1456 1454 1453 1453 1450 1448 1449 1449 1449 1447 1448 1453 1456